Wetbulb
74.57 74.93 75.68 75.55 75.32 74.75 75.56 76.03 75.00 75.78 75.31 75.26 75.73 76.08 75.41 75.01 74.82 75.06 75.73 75.55 74.76 74.49 74.42 75.00 75.87 76.56 77.05 77.19 76.93 76.93 76.78 76.80 76.94 77.25 76.83 77.17 77.10 76.89 76.73 76.30 76.12 75.94 75.43
78.13 74.95 75.42 74.62 74.54 75.37 75.19 75.28 76.48 75.23 74.89 73.84 74.45 75.66 75.63 74.75 75.37 75.74 75.52 76.22 76.32 75.77 74.76 74.10 74.51 75.69 76.28 76.82 76.62 76.76 77.08 77.05 77.06 77.23 77.18 77.14 76.76 76.50 76.55 76.43 75.94 75.51 74.39
78.45 78.79 75.41 77.01 75.00 77.06 77.10 76.37 76.52 75.13 73.35 73.44 74.31 75.17 75.22 75.41 75.59 75.88 76.19 76.27 76.34 76.42 75.53 74.60 74.24 74.95 76.42 76.56 77.74 77.41 77.40 77.35 77.34 76.92 76.60 76.23 76.48 76.36 76.09 75.78 74.93 74.61 74.16
78.02 77.91 76.22 76.47 76.50 76.75 75.25 74.72 75.15 73.78 73.93 73.60 73.27 73.93 74.81 74.62 75.59 76.52 76.51 76.76 76.95 77.05 76.39 75.87 75.39 75.66 77.24 77.37 77.27 77.31 77.27 77.18 77.03 76.45 76.40 76.71 76.33 75.94 75.44 74.77 74.54 74.16 73.67
77.79 77.45 77.69 76.49 78.21 75.49 76.28 75.36 73.86 74.89 72.63 72.88 72.26 72.88 73.85 74.27 75.63 74.66 75.86 76.60 77.22 77.46 78.38 76.72 76.95 77.40 76.23 76.25 76.90 77.27 77.00 77.17 76.90 76.65 76.30 75.97 75.62 75.17 74.77 74.30 74.02 73.62 73.30
77.48 77.95 76.42 77.49 77.74 74.86 74.54 76.47 77.56 75.04 74.82 73.01 71.69 71.94 73.79 74.51 74.78 74.58 75.15 75.42 76.52 76.98 77.97 78.64 77.76 76.44 76.66 76.63 76.53 76.69 76.97 76.31 75.92 75.70 75.35 75.10 74.85 74.28 73.80 73.55 73.72 73.87 73.77
77.54 77.33 75.90 76.67 76.82 76.60 77.47 76.56 76.41 75.82 72.66 74.40 72.34 71.45 72.28 73.41 73.44 74.32 75.32 75.65 75.51 75.83 77.77 78.22 78.41 77.66 76.67 76.46 75.83 76.02 76.69 76.49 75.63 75.27 74.95 74.57 74.15 74.02 73.97 73.92 73.57 73.80 73.75
77.42 76.81 77.85 76.55 77.37 75.89 76.87 77.35 78.02 75.51 74.22 75.13 73.05 71.02 68.04 70.55 72.18 72.68 74.59 74.85 74.95 75.64 76.86 77.86 78.36 78.67 78.73 78.04 76.52 75.28 75.87 76.60 76.24 75.34 74.72 74.57 74.38 74.37 73.87 73.70 73.68 73.35 73.24
76.86 77.45 77.71 77.46 77.76 76.55 75.48 77.30 77.39 78.14 73.26 74.17 76.81 72.70 69.41 65.59 67.94 72.99 74.31 73.74 75.40 75.20 76.20 77.67 77.97 78.33 78.58 78.38 77.07 75.08 74.47 75.15 75.07 75.15 75.85 75.77 75.20 74.60 73.75 72.88 73.01 72.69 73.11
76.34 76.75 77.18 77.18 77.52 76.67 78.27 77.06 76.59 77.47 78.16 74.96 74.17 72.77 76.12 75.23 69.11 67.49 73.47 74.04 75.09 74.42 74.85 75.88 76.71 78.10 78.59 78.11 75.50 74.18 73.78 73.48 73.93 74.42 74.80 74.65 73.98 73.02 72.07 71.57 71.86 71.68 73.28
76.98 76.37 76.97 77.60 77.79 76.63 77.07 77.85 77.66 77.99 76.78 75.13 73.31 73.70 75.99 72.11 74.18 69.57 66.51 68.42 75.07 74.57 75.19 75.37 76.33 77.16 77.94 77.61 77.87 73.73 73.01 72.41 72.70 72.97 72.98 72.61 71.98 71.62 71.05 70.54 70.47 70.57 70.84
75.86 76.99 76.81 77.69 78.10 77.82 76.36 76.43 78.13 78.35 78.16 78.25 76.16 76.06 72.26 70.43 71.86 69.34 69.60 72.41 67.83 70.86 75.23 75.02 75.93 77.07 77.87 77.76 74.65 73.00 72.18 71.65 71.39 70.92 70.67 70.14 70.07 69.73 69.47 69.47 69.28 69.25 69.50
73.23 77.42 77.77 77.72 76.81 78.09 77.31 76.80 77.60 77.93 77.97 76.73 77.69 74.14 74.62 73.52 72.65 72.11 71.69 70.09 69.14 72.32 73.31 74.66 75.03 76.24 76.83 77.74 76.18 74.96 71.54 70.51 69.71 69.21 69.05 68.49 68.05 67.80 67.71 67.35 67.32 67.52 67.88
73.71 77.62 77.37 76.84 76.96 77.69 77.74 77.79 75.97 75.33 78.04 76.62 77.54 78.35 75.79 74.74 73.66 73.71 72.52 71.70 69.50 70.07 73.04 75.52 76.66 75.97 76.35 77.59 74.86 73.95 72.37 69.34 68.68 67.94 67.78 67.18 66.63 66.45 65.95 65.74 65.53 65.67 65.51
74.71 76.23 73.96 76.65 76.60 78.07 77.00 78.17 76.10 76.81 77.05 77.40 76.93 77.30 76.12 74.66 74.52 75.40 75.68 73.21 71.68 67.65 68.28 75.66 71.79 77.22 76.64 76.95 75.99 76.46 74.48 67.98 67.60 66.80 66.39 66.01 65.45 64.90 64.27 63.93 63.55 63.62 63.32
77.25 77.08 76.51 76.58 76.76 77.06 77.07 77.65 76.42 78.30 77.61 76.03 75.48 77.93 78.49 75.52 74.77 74.93 74.66 73.87 73.76 71.78 68.81 71.43 71.44 76.45 77.23 75.62 75.26 76.83 74.09 68.75 66.79 65.92 65.02 64.45 64.04 63.35 63.15 62.80 62.58 62.30 61.95
76.14 76.46 76.88 76.80 76.92 77.43 77.49 78.27 77.75 77.09 72.71 77.00 76.61 76.41 76.54 77.78 74.49 73.64 73.06 73.38 72.67 72.38 69.75 71.08 76.33 78.68 77.47 76.91 76.70 76.51 73.41 74.64 68.50 65.37 64.23 63.31 62.78 62.03 61.65 61.54 61.39 61.21 60.76
76.86 76.95 76.60 76.45 76.17 76.39 76.85 76.15 75.42 75.12 75.66 75.24 75.22 77.52 75.79 75.07 77.75 78.80 74.90 76.41 73.76 74.75 71.72 74.79 74.49 73.63 77.63 77.84 77.71 78.24 76.23 75.29 70.46 64.63 63.59 61.97 60.93 60.33 60.59 60.69 60.65 59.81 59.36
77.39 75.75 77.09 77.58 77.05 76.09 76.70 76.76 76.75 76.20 75.50 75.57 76.01 76.27 75.63 75.85 75.86 75.62 76.85 75.54 74.46 75.16 76.23 75.88 72.56 74.86 76.11 75.42 77.43 77.57 77.07 77.25 74.98 63.83 62.06 60.31 59.08 58.59 58.96 59.41 59.22 58.09 57.36
77.47 77.35 76.79 77.41 77.32 76.41 76.61 76.17 76.64 76.75 77.26 76.24 76.47 76.67 74.26 75.99 77.34 77.70 75.73 76.27 75.90 74.81 75.76 73.73 73.23 73.23 74.59 77.96 77.92 76.88 76.16 77.35 73.71 67.21 65.73 61.95 58.06 57.47 57.54 57.66 56.85 55.85 54.81
77.53 77.46 77.21 77.29 76.37 75.46 74.88 77.11 76.77 76.31 76.15 75.72 75.88 76.64 74.62 75.02 71.26 72.71 75.62 76.80 77.22 76.34 76.69 75.50 74.18 76.10 75.57 76.33 75.78 75.98 75.78 76.58 74.16 71.75 64.05 60.94 58.51 57.93 57.15 57.15 56.60 55.22 54.17
77.79 77.82 76.79 77.04 76.28 75.01 69.59 68.14 72.80 75.47 76.45 76.89 75.24 76.15 78.04 74.73 73.28 69.87 69.11 69.18 73.08 75.75 75.50 73.68 74.78 73.45 75.34 75.73 75.59 74.50 72.77 73.40 72.66 75.74 74.15 65.23 63.00 62.29 60.65 60.05 58.07 55.20 54.39
77.02 77.06 77.01 77.05 77.00 77.39 67.61 66.09 67.90 73.95 74.62 76.81 76.09 76.70 75.12 74.85 74.10 76.63 70.33 67.87 68.17 67.68 68.74 74.85 74.00 75.12 75.10 75.59 76.13 75.31 75.59 75.02 73.80 72.62 73.58 61.07 58.12 55.41 56.84 56.10 56.23 55.34 55.07
75.65 77.36 76.81 77.14 77.19 76.34 65.27 64.38 67.50 75.28 75.09 76.23 76.75 77.02 77.18 76.95 76.64 74.93 75.89 76.29 75.65 76.40 72.57 70.98 72.85 70.78 73.48 72.83 73.70 74.40 74.49 73.70 71.78 67.68 66.70 60.53 55.58 53.18 55.10 54.86 55.06 54.42 53.78
75.04 75.57 75.94 75.65 75.71 76.21 64.10 64.66 67.84 75.98 74.45 76.04 76.75 77.48 76.67 76.62 65.98 63.92 74.36 73.85 74.15 71.78 59.77 59.74 59.12 59.25 59.83 60.41 62.63 64.51 67.32 69.82 68.87 63.70 60.80 54.52 52.17 51.85 52.54 52.47 53.84 53.65 52.73
72.06 70.17 69.75 71.93 66.85 72.00 59.37 61.52 64.80 73.91 73.27 72.99 77.12 77.19 62.85 68.06 60.93 60.36 70.88 72.61 71.89 72.93 67.25 65.11 64.09 62.22 63.27 61.96 60.71 63.24 62.78 65.04 60.78 58.72 56.77 52.01 51.14 51.27 48.97 52.84 53.02 53.98 53.22
MSLP
1016.71 1016.59 1016.85 1016.72 1016.44 1016.62 1016.53 1016.53 1016.54 1016.54 1016.83 1016.46 1016.28 1016.34 1015.84 1016.18 1016.11 1015.87 1016.43 1017.61 1017.89 1018.01 1018.13 1018.21 1018.13 1018.11 1018.13 1018.18 1018.12 1018.02 1017.88 1017.85 1017.76 1017.64 1017.51 1017.54 1017.45 1017.33 1017.20 1017.17 1017.28 1017.35 1017.47
1016.68 1016.81 1016.67 1016.51 1016.47 1016.15 1016.23 1016.60 1016.57 1016.37 1015.98 1016.10 1016.76 1016.35 1016.28 1016.39 1016.72 1016.60 1016.08 1016.83 1017.29 1017.52 1017.73 1017.97 1018.05 1018.06 1018.13 1018.15 1018.10 1017.95 1017.91 1017.85 1017.82 1017.72 1017.65 1017.64 1017.58 1017.43 1017.32 1017.31 1017.46 1017.55 1017.58
1016.83 1016.25 1016.39 1016.15 1016.22 1016.91 1017.08 1017.00 1016.93 1016.39 1015.92 1016.06 1016.68 1016.61 1016.37 1016.56 1016.38 1016.71 1016.28 1015.88 1016.55 1017.16 1017.46 1017.84 1017.99 1018.07 1018.12 1018.09 1018.19 1018.11 1018.03 1017.93 1017.81 1017.78 1017.64 1017.61 1017.60 1017.56 1017.63 1017.64 1017.68 1017.70 1017.70
1017.05 1016.26 1016.34 1016.28 1016.64 1016.44 1016.32 1016.23 1016.17 1016.04 1015.97 1015.99 1016.29 1016.20 1016.34 1016.33 1016.53 1016.40 1016.19 1016.48 1016.26 1016.29 1017.33 1017.69 1017.97 1018.12 1018.06 1018.24 1018.26 1018.23 1018.30 1018.13 1017.97 1017.83 1017.73 1017.71 1017.75 1017.87 1018.04 1018.06 1018.03 1017.94 1017.82
1017.30 1016.35 1016.26 1016.74 1017.14 1016.21 1016.11 1016.13 1016.25 1016.47 1016.19 1016.08 1016.01 1016.15 1016.17 1016.05 1016.13 1015.68 1016.26 1016.43 1016.22 1016.18 1016.59 1017.82 1017.89 1017.99 1018.17 1018.32 1018.37 1018.33 1018.33 1018.33 1018.19 1018.06 1017.98 1018.05 1018.18 1018.22 1018.34 1018.32 1018.29 1018.16 1018.00
1017.43 1017.02 1016.67 1017.12 1017.13 1016.50 1016.42 1016.63 1016.69 1016.70 1016.63 1016.14 1015.45 1015.58 1015.94 1015.96 1015.90 1015.79 1015.67 1015.49 1015.71 1015.78 1015.80 1016.81 1017.59 1017.86 1018.23 1018.44 1018.53 1018.56 1018.50 1018.49 1018.43 1018.39 1018.38 1018.42 1018.52 1018.51 1018.49 1018.40 1018.24 1018.08 1017.95
1017.52 1017.52 1016.71 1017.32 1017.30 1017.17 1017.18 1017.24 1017.19 1017.18 1016.70 1016.78 1016.43 1015.79 1015.52 1015.54 1015.19 1015.23 1015.35 1015.53 1015.70 1015.71 1016.15 1016.42 1016.35 1016.92 1017.82 1018.35 1018.64 1018.70 1018.68 1018.67 1018.66 1018.65 1018.68 1018.64 1018.58 1018.52 1018.43 1018.30 1018.24 1018.13 1018.00
1017.41 1017.44 1017.52 1017.34 1017.52 1017.28 1017.68 1017.59 1017.33 1016.84 1016.30 1016.59 1016.36 1015.51 1014.73 1014.31 1014.20 1014.14 1015.04 1015.44 1015.95 1015.67 1015.83 1016.48 1016.65 1016.95 1016.92 1017.25 1018.29 1018.72 1018.81 1018.80 1018.77 1018.77 1018.75 1018.69 1018.70 1018.64 1018.61 1018.60 1018.55 1018.35 1018.13
1017.25 1017.54 1017.66 1017.70 1017.81 1017.87 1017.18 1017.64 1017.48 1017.03 1016.50 1016.27 1016.79 1016.17 1014.92 1015.96 1016.10 1015.71 1014.45 1014.55 1015.35 1015.37 1015.73 1016.23 1016.42 1016.84 1016.98 1017.00 1018.08 1018.79 1018.97 1019.01 1018.97 1018.95 1018.82 1018.80 1018.83 1018.89 1018.92 1018.95 1018.89 1018.64 1018.33
1017.09 1017.25 1017.67 1017.81 1017.91 1017.58 1017.69 1017.65 1017.61 1017.57 1016.86 1016.00 1016.20 1015.98 1016.23 1015.79 1015.19 1014.83 1014.04 1015.75 1014.93 1014.44 1015.56 1015.64 1015.68 1016.57 1016.78 1016.73 1017.72 1018.50 1019.00 1019.16 1019.18 1019.20 1019.18 1019.16 1019.11 1019.04 1019.05 1019.01 1018.91 1018.74 1018.48
1017.04 1017.12 1017.51 1017.69 1017.92 1017.74 1017.78 1017.96 1017.72 1017.93 1017.33 1016.95 1016.03 1015.93 1015.92 1015.98 1015.45 1014.95 1015.02 1016.27 1015.61 1015.64 1014.80 1015.45 1015.72 1015.84 1016.58 1016.64 1016.60 1018.32 1018.97 1019.25 1019.31 1019.36 1019.41 1019.40 1019.37 1019.24 1019.19 1019.16 1019.12 1018.96 1018.82
1016.77 1017.03 1017.07 1017.50 1017.73 1017.63 1017.95 1017.94 1017.96 1017.97 1017.91 1017.58 1017.09 1016.52 1015.97 1015.54 1015.00 1016.28 1014.36 1014.52 1015.90 1015.83 1015.61 1014.77 1015.53 1015.64 1015.91 1016.35 1017.65 1018.42 1018.91 1019.23 1019.37 1019.48 1019.58 1019.61 1019.63 1019.54 1019.44 1019.34 1019.24 1019.14 1019.05
1015.40 1016.17 1016.87 1017.22 1017.39 1017.75 1017.78 1017.94 1018.08 1018.14 1017.92 1017.83 1017.72 1017.16 1016.28 1015.56 1015.36 1015.22 1015.23 1015.17 1015.43 1015.37 1015.26 1015.76 1014.84 1015.47 1015.87 1016.36 1017.46 1018.22 1019.02 1019.34 1019.50 1019.59 1019.72 1019.76 1019.79 1019.80 1019.75 1019.65 1019.55 1019.44 1019.35
1015.00 1015.79 1016.52 1016.71 1017.04 1017.25 1017.40 1017.62 1017.98 1017.96 1017.68 1017.61 1017.79 1017.67 1017.02 1016.09 1015.57 1015.41 1015.50 1015.52 1015.52 1015.04 1015.44 1015.20 1014.55 1014.96 1015.39 1016.16 1017.78 1018.24 1018.74 1019.31 1019.60 1019.70 1019.76 1019.85 1019.85 1019.86 1019.92 1019.89 1019.78 1019.72 1019.70
1015.03 1015.50 1016.23 1016.41 1016.49 1016.83 1017.01 1017.22 1017.55 1017.43 1017.62 1017.73 1017.48 1017.66 1017.61 1016.84 1016.24 1015.64 1015.88 1017.08 1016.06 1015.55 1015.00 1014.89 1014.60 1014.75 1015.29 1015.79 1016.93 1017.44 1017.97 1019.17 1019.53 1019.82 1019.91 1019.96 1020.02 1020.05 1020.10 1020.10 1020.06 1019.99 1019.95
1015.20 1015.65 1015.96 1016.20 1016.53 1016.75 1016.65 1017.22 1017.28 1016.95 1017.24 1017.38 1016.98 1017.03 1017.08 1016.81 1016.47 1015.89 1015.81 1015.62 1015.58 1015.56 1015.28 1015.03 1014.92 1015.03 1015.28 1015.55 1017.05 1017.21 1017.78 1018.73 1019.29 1019.66 1019.85 1020.04 1020.14 1020.21 1020.28 1020.35 1020.36 1020.35 1020.28
1015.69 1015.43 1016.12 1016.20 1016.52 1016.43 1016.83 1017.10 1017.23 1017.11 1017.69 1017.15 1017.22 1017.12 1017.11 1017.23 1017.19 1016.55 1016.02 1015.64 1015.43 1015.40 1015.26 1015.05 1015.36 1015.89 1016.01 1016.34 1016.61 1017.16 1017.94 1017.73 1018.83 1019.40 1019.63 1020.01 1020.30 1020.44 1020.49 1020.55 1020.61 1020.61 1020.60
1015.21 1015.61 1015.93 1016.27 1016.39 1016.33 1016.59 1017.00 1017.09 1016.60 1016.58 1016.78 1016.98 1016.98 1016.87 1016.62 1016.80 1016.93 1016.68 1016.48 1015.99 1015.91 1016.02 1015.72 1015.86 1015.62 1015.76 1016.08 1016.48 1016.86 1016.85 1016.27 1017.37 1019.07 1019.47 1019.92 1020.33 1020.54 1020.63 1020.68 1020.72 1020.82 1020.90
1014.83 1015.04 1015.38 1015.62 1015.77 1016.05 1016.12 1016.57 1016.56 1016.46 1016.48 1016.48 1016.46 1016.55 1017.02 1016.70 1016.93 1016.53 1016.79 1016.42 1016.10 1015.62 1015.87 1016.32 1016.41 1015.89 1015.64 1015.98 1016.54 1016.58 1016.70 1016.58 1016.88 1018.75 1019.39 1019.90 1020.27 1020.58 1020.77 1020.89 1020.98 1021.10 1021.24
1014.23 1014.51 1014.73 1014.99 1015.18 1015.53 1015.63 1015.84 1015.87 1015.90 1015.89 1016.02 1016.19 1016.31 1016.63 1016.27 1016.34 1016.64 1016.89 1017.02 1016.82 1016.63 1016.33 1016.47 1016.16 1015.64 1015.44 1015.89 1016.34 1016.39 1016.54 1016.64 1017.22 1017.76 1018.47 1019.20 1020.22 1020.76 1021.16 1021.33 1021.34 1021.48 1021.63
1013.49 1013.90 1014.14 1014.44 1014.85 1014.98 1014.98 1015.16 1015.37 1015.45 1015.58 1015.70 1015.87 1015.96 1016.06 1015.86 1016.05 1016.27 1016.56 1016.60 1016.80 1016.80 1016.68 1016.63 1016.52 1016.28 1016.04 1016.00 1016.07 1016.04 1016.13 1015.96 1016.29 1016.79 1017.62 1018.80 1019.54 1020.06 1020.91 1021.40 1021.55 1021.84 1021.96
1013.11 1013.47 1013.58 1013.68 1014.15 1014.41 1014.18 1014.49 1014.84 1014.79 1015.07 1015.45 1015.45 1015.49 1015.36 1015.40 1015.54 1015.63 1015.80 1016.03 1016.40 1016.57 1016.56 1016.66 1016.33 1016.24 1015.92 1015.87 1015.81 1015.79 1015.92 1015.97 1015.92 1015.95 1016.73 1017.72 1017.91 1018.36 1019.09 1019.97 1021.08 1021.87 1022.13
1013.16 1013.17 1013.08 1013.19 1013.35 1013.73 1013.84 1014.20 1014.48 1014.60 1014.57 1014.73 1015.04 1015.16 1015.08 1014.59 1014.67 1014.88 1015.18 1015.74 1015.92 1016.08 1016.38 1016.32 1016.25 1015.88 1015.86 1015.74 1015.66 1015.83 1015.94 1016.04 1016.09 1016.16 1016.43 1018.11 1018.94 1019.32 1019.93 1020.85 1021.33 1021.87 1022.22
1012.92 1012.99 1013.16 1013.15 1013.26 1013.43 1013.77 1014.07 1014.28 1014.42 1014.30 1014.32 1014.34 1014.37 1014.48 1014.55 1014.64 1014.96 1015.03 1015.07 1015.34 1015.67 1016.42 1016.65 1016.05 1016.20 1016.07 1016.07 1015.85 1015.72 1015.83 1016.08 1016.68 1017.02 1017.28 1018.45 1019.77 1020.39 1020.83 1021.51 1021.90 1022.16 1022.48
1013.03 1013.12 1013.14 1013.40 1013.51 1013.77 1014.32 1014.54 1014.48 1014.10 1013.82 1013.79 1013.79 1013.98 1014.13 1014.28 1014.68 1015.08 1015.05 1014.97 1015.03 1015.72 1016.66 1016.71 1016.90 1017.13 1017.08 1016.90 1016.76 1016.40 1016.44 1016.12 1016.49 1017.40 1018.42 1019.24 1020.39 1021.03 1021.55 1021.94 1022.22 1022.43 1022.77
1013.34 1013.68 1013.98 1013.94 1014.20 1014.22 1014.86 1014.94 1014.83 1014.09 1013.54 1013.19 1013.38 1013.86 1014.53 1014.68 1015.11 1015.22 1015.15 1015.11 1015.06 1015.10 1015.99 1016.57 1017.02 1017.24 1017.14 1017.14 1017.11 1016.90 1017.09 1016.61 1017.44 1018.23 1019.04 1019.60 1020.45 1020.99 1021.56 1021.84 1022.01 1022.11 1022.51
Wind_Speed
4 5 5 6 3 7 5 2 4 2 4 6 3 3 3 5 5 3 7 14 11 9 6 3 4 6 6 6 6 5 6 6 5 5 6 8 8 8 7 5 5 6 7
3 9 8 9 6 3 4 5 2 4 3 7 3 2 0 4 4 5 6 9 13 11 7 2 2 5 5 5 5 6 6 6 7 8 8 8 8 7 7 8 7 7 6
4 3 4 3 5 6 2 3 6 3 4 5 4 3 3 2 4 3 5 6 8 11 9 5 2 3 4 4 6 7 8 9 9 10 9 7 6 8 9 9 8 8 8
2 1 5 2 3 6 6 4 5 2 1 2 3 3 3 3 2 2 4 5 6 4 8 8 6 4 5 5 7 8 8 9 10 9 9 9 11 10 10 9 8 8 8
2 3 1 8 7 3 2 4 6 4 4 3 5 3 2 2 3 4 1 4 5 6 9 9 9 7 6 5 7 7 8 10 9 10 12 12 12 11 9 8 7 6 6
4 6 6 4 8 2 3 5 6 3 6 2 8 5 2 3 3 3 3 4 6 5 7 8 8 7 7 6 6 6 7 8 9 11 11 12 10 9 8 8 9 9 8
5 3 2 5 4 3 5 1 5 5 3 2 5 7 6 8 10 5 3 2 5 3 3 5 5 7 7 10 8 6 6 7 8 10 9 9 8 8 9 10 10 10 9
5 4 2 1 3 2 3 3 5 5 3 3 8 3 8 8 5 7 5 2 4 3 4 3 5 3 2 7 9 6 7 6 7 7 5 5 6 6 6 7 9 10 9
6 5 4 3 1 5 4 4 4 6 4 4 3 7 9 5 13 10 7 6 5 3 2 5 2 0 0 5 9 8 7 6 5 6 8 9 11 11 11 11 10 10 11
5 6 5 4 3 5 6 3 5 7 5 4 6 4 6 8 11 5 5 10 8 6 5 4 5 7 2 3 11 11 8 6 5 6 8 9 10 10 10 11 10 9 12
7 7 5 5 4 6 3 5 2 4 5 7 9 3 4 4 5 7 7 7 3 10 7 2 5 1 3 4 5 10 9 6 6 6 7 8 8 9 10 10 10 10 11
9 7 5 5 4 4 3 5 5 5 5 6 7 9 8 7 6 2 7 7 10 8 11 4 4 2 2 2 9 13 9 6 6 6 7 8 8 9 9 9 10 10 10
8 12 9 6 7 7 4 4 3 6 4 6 4 8 8 5 7 6 7 9 7 6 6 14 6 2 2 3 9 11 9 7 5 5 6 7 7 8 8 8 9 10 10
6 12 8 5 8 7 6 5 6 6 7 6 7 6 9 9 7 5 6 7 8 10 3 6 5 5 6 5 10 7 8 9 7 7 6 5 6 7 7 8 9 10 10
2 8 5 8 6 5 6 6 7 6 6 7 6 6 6 9 6 5 7 7 3 8 9 1 5 6 3 4 9 5 9 12 9 7 7 7 6 7 7 7 8 9 10
7 1 5 7 8 6 4 5 9 9 7 6 8 5 5 7 9 6 6 7 7 7 9 8 9 3 4 5 8 4 6 12 11 9 7 7 7 7 7 7 7 8 9
10 5 5 5 5 7 9 9 8 9 1 8 8 8 7 5 8 9 9 9 7 8 8 8 3 4 2 1 3 2 9 6 9 12 11 8 7 7 7 8 8 9 9
10 10 8 9 10 10 8 6 10 9 8 9 8 10 9 9 5 7 8 9 9 9 9 9 9 9 5 3 5 6 6 8 11 14 12 10 8 7 7 8 9 10 10
11 12 11 10 10 9 9 10 10 10 10 10 10 10 7 8 7 8 7 10 9 6 4 4 9 10 2 4 4 5 6 7 2 18 13 12 10 8 8 8 8 9 9
12 12 11 11 10 11 10 11 11 10 11 7 9 9 8 9 9 7 8 9 10 10 8 7 9 10 7 4 4 5 5 6 4 9 11 13 13 10 8 8 9 9 9
12 12 12 12 11 11 10 11 10 10 9 9 10 8 10 9 8 4 6 9 9 7 6 7 7 7 7 6 6 4 6 7 6 6 10 10 9 9 8 10 10 10 10
12 11 13 13 14 11 12 10 9 9 10 9 10 10 10 9 11 13 13 13 11 10 10 8 8 8 8 7 5 5 4 6 3 4 9 3 8 9 10 7 14 12 10
11 12 14 13 13 14 7 9 11 12 11 9 11 10 11 11 6 8 10 11 10 11 11 11 11 9 8 5 4 5 5 5 4 1 2 4 6 7 6 9 14 13 9
10 10 12 12 11 10 2 8 10 11 11 12 11 11 11 11 9 6 10 9 10 7 3 3 4 6 5 5 4 4 5 2 2 3 4 3 3 5 6 6 10 8 5
7 9 9 10 11 9 5 3 4 10 13 12 12 11 10 11 5 3 7 8 9 4 7 10 11 9 9 9 8 2 4 5 5 2 4 4 2 3 2 3 3 4 1
0 2 4 2 3 3 10 8 6 7 11 9 7 8 6 5 5 2 4 6 6 5 8 6 5 3 1 6 11 7 5 3 2 2 2 4 3 3 2 2 4 5 4
Wind_Direction
114 115 155 172 138 170 144 222 128 170 170 171 179 201 135 45 33 38 126 177 195 218 240 290 2 351 348 346 1 8 18 14 19 6 352 357 355 358 2 33 49 42 29
193 146 178 166 165 182 156 125 7 181 217 118 131 149 116 111 40 338 13 167 193 203 220 244 352 16 3 359 8 16 32 28 7 358 355 1 3 14 44 71 69 55 41
277 143 104 215 127 67 73 127 220 223 130 122 105 168 135 46 92 9 303 348 162 192 186 158 106 41 28 35 29 33 23 22 16 12 11 23 41 63 68 65 60 46 27
171 175 189 109 113 184 183 153 244 167 92 145 119 198 135 221 68 188 55 336 24 92 137 131 120 104 78 49 30 30 34 27 34 40 53 62 71 70 64 58 49 39 25
160 313 152 95 242 183 96 220 174 309 138 272 200 189 232 315 226 43 329 315 65 336 107 131 130 117 95 62 52 34 33 41 56 66 70 72 71 70 63 55 50 44 37
131 276 85 100 274 205 187 22 5 60 324 301 309 115 282 231 231 276 323 274 87 293 82 139 150 130 125 101 76 50 49 55 62 67 69 72 73 68 58 43 32 23 21
141 227 148 178 265 344 8 333 211 185 197 118 281 223 213 202 215 197 45 342 68 42 65 94 186 134 145 129 99 73 54 70 72 73 73 71 64 52 42 29 16 7 10
173 185 323 153 65 323 183 271 309 286 232 124 283 342 263 199 219 97 98 51 31 51 76 205 81 12 206 144 106 107 74 63 74 70 75 68 57 54 48 35 23 22 20
200 235 178 284 212 281 188 196 241 302 15 151 346 313 334 97 244 329 160 134 159 86 98 133 142 246 293 107 141 116 91 71 68 52 48 56 61 63 54 47 34 15 19
214 193 211 209 228 301 2 235 227 304 316 319 176 212 348 341 350 311 162 45 175 140 92 282 149 172 173 183 94 87 102 87 68 57 61 59 58 56 54 47 37 26 29
219 204 201 209 224 239 173 291 315 240 297 284 312 200 171 278 227 263 308 196 116 268 128 196 47 18 194 299 136 118 118 103 88 75 72 68 65 60 56 53 48 43 34
181 215 205 215 227 264 231 245 240 251 275 330 318 325 304 280 302 150 295 324 189 50 286 138 165 316 117 221 94 118 121 121 109 96 90 82 73 69 63 56 50 46 43
199 159 184 201 223 212 262 260 233 294 252 265 244 281 293 276 285 326 316 302 47 302 25 323 126 173 287 229 126 130 135 137 128 111 98 93 87 81 80 74 64 56 50
200 128 166 214 199 247 204 220 246 238 232 221 244 280 305 306 276 261 273 304 332 315 34 239 143 187 165 64 97 141 143 151 145 137 126 114 100 93 83 75 71 66 61
215 147 64 189 230 213 232 263 235 242 244 228 249 231 260 275 309 324 335 247 269 297 311 175 294 134 70 170 141 207 150 152 151 153 146 140 129 114 100 91 84 82 76
287 299 207 205 218 228 234 225 262 228 226 261 247 234 246 287 299 293 277 290 290 290 289 308 311 169 52 23 138 192 89 147 157 166 158 148 139 130 122 112 102 94 90
210 211 263 280 285 239 207 221 255 284 25 236 259 286 285 269 271 290 300 297 271 275 284 283 33 99 106 243 232 200 166 222 166 174 160 152 147 142 133 125 119 113 105
227 241 215 224 233 247 240 244 238 271 247 245 241 257 266 265 216 246 272 275 288 304 301 317 308 300 214 209 227 234 258 260 145 162 150 144 143 141 138 136 131 122 116
218 232 209 222 229 230 216 216 229 235 248 266 259 261 289 259 296 280 302 299 286 275 217 229 277 282 125 196 237 252 247 246 125 141 138 139 142 145 147 139 130 125 118
214 221 221 226 219 227 225 228 230 228 234 242 259 250 259 248 259 246 251 272 276 281 289 288 281 285 321 298 235 242 239 242 150 170 159 135 147 136 139 136 134 123 109
212 219 216 214 227 235 237 220 242 248 253 234 250 243 241 248 310 308 254 251 259 271 261 267 270 277 276 282 252 251 242 246 212 165 143 155 154 155 148 171 136 130 118
228 218 224 219 208 231 229 206 229 240 228 240 250 255 260 260 237 223 220 236 251 265 263 266 278 271 275 269 273 276 289 297 270 202 176 143 167 176 160 162 129 137 136
244 230 227 226 218 217 209 195 211 236 250 235 239 238 245 261 245 258 220 241 269 254 251 264 263 267 280 286 301 287 275 281 285 236 114 97 49 79 86 110 132 142 146
237 241 243 238 236 235 280 194 187 232 250 257 261 259 255 268 275 287 276 274 268 282 266 271 290 340 358 357 357 322 287 282 95 72 35 125 102 94 92 98 118 127 138
268 255 256 257 252 252 46 49 242 245 248 241 247 256 268 261 131 201 257 275 268 148 82 76 79 85 78 48 18 9 301 245 237 109 50 92 106 105 115 133 150 175 154
262 21 352 347 68 136 47 17 342 268 256 254 265 267 67 16 110 220 266 274 271 221 175 159 126 137 138 76 37 35 346 338 82 133 109 102 136 144 156 163 185 177 173